Vertical_Velocity
1 0 -0 -1 -1 -0 0 0 -0 -0 -0 0 0 0 1 0 -0 -1 -1 0 1 1 1 1 0 -0 0 1 0 -0 -1 -0 0 1 1 1 1 1 0 -0 -0 -0 -1 -1 -1 -1 -1 -2 -2 -2 -2 -1 -1 -1 -0 -0 -1 -1 -1 -0 -0 -0 -0 -0 -0 -0 -0 -0 -0 -0 -0 -0 -0 -0 -0 -1 -0 -0 -1 -1 -1 -1 -0 -0 0 0 0 0 0 0 0 0 0 1 1 0 0 0 0 0 0 0 0
1 0 -0 -1 -1 -1 0 1 0 -0 -0 0 1 1 1 1 0 -1 -1 -0 0 1 1 1 0 -0 0 0 0 -0 -1 -0 -0 0 1 1 1 1 0 -0 -0 -0 -1 -1 -1 -1 -1 -1 -2 -2 -1 -1 -1 -1 -0 -0 -1 -1 -1 -0 -0 0 -0 0 0 -0 -0 -0 -0 -0 -1 -1 -1 -0 -0 -0 -0 -0 -1 -1 -1 -1 -1 -0 0 0 0 1 0 0 0 0 1 1 1 1 1 0 0 0 0 0 1
1 1 0 -1 -1 -1 -0 0 1 0 0 -0 0 1 2 2 1 -0 -1 -0 0 1 1 1 1 0 1 1 0 -0 -1 -1 -0 0 1 1 1 0 0 -0 -0 -0 -1 -1 -1 -1 -1 -1 -1 -2 -1 -1 -1 -1 -0 -0 -0 -1 -1 -0 0 0 0 0 0 0 0 -0 -0 -0 -1 -1 -1 -1 -1 -0 -0 -0 -0 -0 -1 -1 -1 -0 -0 0 0 1 1 1 1 1 1 1 1 1 1 1 0 0 0 0 1
1 1 0 -0 -1 -1 -1 0 0 1 0 0 1 2 2 2 1 -0 -0 -0 0 0 1 1 1 1 1 1 0 -0 -1 -1 -0 0 1 1 0 0 -0 -0 -0 -0 -1 -1 -1 -1 -0 -1 -1 -2 -1 -1 -1 -0 0 -0 -0 -1 -1 -0 -0 0 0 0 0 0 0 0 -0 -0 -0 -1 -1 -1 -1 -0 -0 -0 -0 -0 -1 -1 -1 -0 -0 0 0 0 0 1 1 1 1 1 1 1 1 1 0 0 0 0 0
1 1 1 0 -1 -1 -1 -0 0 1 1 0 1 2 3 2 1 0 -0 0 0 0 1 1 1 1 1 1 0 -0 -1 -0 0 0 0 0 -0 -0 -0 -0 -0 -0 -0 -1 -1 -0 -0 -1 -1 -2 -1 -1 -1 -0 0 -0 -0 -0 -0 -1 -0 0 0 0 0 0 0 0 0 -0 -0 -1 -1 -1 -1 -1 -1 -0 -0 -1 -1 -1 -1 -1 -0 -0 0 0 0 0 0 0 0 0 0 0 0 0 0 0 0 0 0
1 1 1 0 -1 -1 -2 -0 1 1 0 -0 1 2 2 2 2 1 0 0 0 0 0 -0 0 1 1 0 -0 -1 -1 0 1 1 0 -0 -1 -1 -0 -0 -0 -0 -0 -1 -1 -0 -0 -1 -1 -1 -1 -1 -1 0 0 0 0 0 -0 -0 -0 0 0 1 1 0 0 0 0 0 -0 -0 -1 -1 -1 -1 -1 -1 -1 -1 -1 -1 -1 -1 -1 -0 -0 -0 -0 0 0 0 0 0 0 0 0 0 0 0 0 0 0
1 1 1 1 -0 -1 -2 -1 0 1 1 -1 0 1 1 2 2 1 1 1 1 1 0 -1 -0 0 1 0 -1 -1 -1 1 1 1 0 -0 -1 -1 -0 -0 -0 -0 -0 -0 -0 -1 -1 -1 -1 -1 -1 -1 -1 -0 0 0 0 0 -0 -0 -0 0 1 1 1 1 1 0 0 0 0 -0 -0 -1 -1 -1 -1 -1 -1 -1 -1 -1 -1 -1 -1 -1 -0 -0 -0 -0 0 0 0 0 0 0 0 0 0 0 1 1 1
0 1 1 1 0 -1 -2 -2 -1 1 1 -0 -1 -0 0 2 2 2 2 2 2 1 -0 -1 -0 1 0 -0 -1 -1 -1 1 1 1 0 -0 -1 -1 -0 -0 -0 -0 -0 -0 -1 -1 -1 -1 -1 -1 -1 -1 -0 -0 -0 0 0 0 -0 -0 -0 0 1 1 1 1 1 1 1 0 0 0 -0 -0 -0 -0 -0 -1 -1 -1 -1 -1 -1 -1 -1 -1 -1 -0 -0 -0 0 0 0 0 0 0 0 0 0 1 1 1 1
0 1 1 1 1 -0 -1 -2 -2 -0 1 0 -0 -0 0 1 1 1 2 3 3 2 -1 -1 -0 1 -1 -1 -1 -1 -0 1 1 1 0 -0 -0 -0 -0 -0 0 0 0 -0 -1 -1 -1 -1 -1 -1 -1 -0 -0 -0 -0 0 0 0 -0 -1 -0 0 1 1 1 1 1 1 1 1 0 0 0 -0 -0 -0 -0 -0 -0 -1 -1 -1 -1 -1 -1 -1 -1 -1 -0 0 0 0 0 0 0 0 0 1 1 1 1 1 1
0 1 2 2 2 1 -0 -2 -2 -1 -0 -0 -0 -0 0 -0 1 2 2 3 3 2 -1 -1 0 0 -1 -1 -1 -0 -0 1 1 1 1 -0 -0 -0 -0 -0 0 0 0 -0 -1 -1 -1 -1 -1 -1 -0 -0 -0 -0 -0 0 0 0 -0 -0 -0 0 1 1 1 1 1 1 1 1 1 1 0 0 -0 -0 -0 -0 -0 -0 -1 -1 -1 -1 -1 -1 -1 -1 -0 0 0 0 1 1 1 1 1 1 1 1 1 1 1
-0 1 2 2 2 2 1 -1 -2 -2 -2 -1 -0 0 0 0 1 2 1 2 2 2 0 0 0 -0 -2 -2 -1 -1 -0 1 1 1 1 0 -0 -0 -0 -0 0 0 0 0 -0 -1 -1 -1 -1 -1 -0 -0 -0 -0 -0 0 0 0 0 0 -0 0 1 1 1 1 1 1 1 1 1 1 0 0 -0 -0 -0 -0 -0 -0 -0 -0 -1 -1 -1 -1 -1 -0 -0 0 0 1 1 1 1 1 1 1 1 1 1 1 1
-0 0 2 2 2 2 2 0 -0 -1 -3 -1 -1 0 1 1 1 1 -0 1 2 2 1 0 0 0 -1 -1 -1 -1 0 0 1 1 1 0 0 -0 -0 -0 -0 0 0 0 -0 -0 -0 -0 -1 -1 0 0 -0 -0 0 0 1 1 0 0 0 0 1 1 1 1 1 1 1 1 1 1 0 0 -0 -0 -0 -0 0 0 0 -0 -0 -0 -0 -1 -0 -0 0 0 1 1 1 1 1 1 1 1 1 1 1 1 1
-1 0 1 2 2 2 2 3 2 0 -2 -2 -1 -1 1 2 2 1 -0 1 1 1 2 1 1 -0 -1 -1 -1 -0 0 0 1 1 1 1 0 0 -0 -0 -0 0 0 0 -0 -0 -0 -0 -0 -0 0 0 0 0 0 1 1 1 1 1 0 0 0 1 1 1 1 1 1 1 1 1 1 0 -0 -0 -0 -0 0 0 0 0 0 -0 -0 -0 -0 0 0 0 1 1 1 1 1 1 1 1 1 1 1 1 1
-1 -0 0 1 2 2 2 4 3 1 -1 -1 -2 -1 0 2 2 2 1 1 1 1 2 2 1 -0 -1 -1 -1 0 0 1 1 1 1 1 0 0 -0 -0 -0 -0 0 0 0 -0 -0 -0 -0 -0 0 0 0 0 0 0 1 1 1 1 1 0 0 1 1 2 1 1 1 1 1 1 1 0 -0 -0 -0 -0 0 0 0 0 0 0 0 0 0 0 0 0 1 1 1 1 2 2 1 1 1 1 1 1 1
-1 -0 0 0 1 2 2 2 3 2 -0 -2 -2 -2 -1 1 2 2 2 1 1 1 2 2 2 1 -1 -1 -1 0 1 1 1 1 1 1 1 0 -0 -0 -0 0 0 0 0 0 -0 -0 -0 -0 0 1 1 0 0 0 1 1 1 1 0 0 -0 0 1 1 1 1 1 1 1 1 1 0 0 -0 -0 -0 0 0 1 1 1 1 0 0 0 0 1 1 1 1 1 1 1 1 1 1 1 1 1 1 1
-0 -1 -0 0 0 1 2 1 2 2 2 -1 -2 -2 -2 -0 2 3 2 1 1 1 1 1 1 1 1 -1 -1 -1 0 1 1 1 1 1 0 0 -0 -0 -0 0 0 0 0 0 0 0 0 0 0 1 1 0 0 0 0 0 1 1 0 0 -0 0 1 1 1 1 1 1 1 1 1 0 0 -0 -0 -0 0 0 1 1 1 1 1 1 1 1 1 1 1 1 1 1 1 1 1 1 1 0 1 1 1
-0 -1 -1 -0 0 1 1 1 1 1 2 0 -1 -2 -3 -1 1 3 2 1 1 1 2 1 1 2 2 -1 -2 -2 -1 1 1 1 1 0 0 -0 -0 0 0 0 -0 -0 -0 -0 0 0 0 0 0 1 1 0 0 0 0 0 0 0 0 -0 -1 -0 0 1 1 1 1 0 0 0 0 0 0 -0 -0 0 0 0 1 1 1 1 1 1 1 1 1 1 1 1 1 1 1 1 1 1 1 1 1 1 1
-1 -1 -1 -1 0 1 1 0 0 0 0 0 -0 -1 -3 -2 -0 2 2 1 1 1 1 1 1 2 3 -0 -3 -4 -1 0 1 1 0 0 -0 -0 0 0 0 -0 -0 -1 -0 -0 0 0 0 1 1 1 1 0 0 0 0 -0 0 0 -0 -0 -1 -1 -0 0 1 1 0 0 0 0 0 0 -0 -0 -0 0 0 0 1 1 1 1 1 1 1 1 1 1 1 1 1 1 1 1 1 1 1 1 1 1 1
-1 -1 -1 -1 -0 0 1 0 -0 -0 -0 0 -0 -1 -3 -3 -2 0 2 2 1 0 1 1 2 3 3 -1 -3 -4 -2 0 1 1 0 0 -0 -0 0 0 0 -0 -1 -1 -1 -0 0 0 1 1 1 1 0 0 0 0 -0 -0 -0 -0 -0 -0 -1 -0 -0 0 0 0 0 0 0 0 0 -0 -0 -0 -0 0 0 1 1 1 0 0 0 0 0 0 0 1 0 1 1 1 1 1 1 1 1 1 1 1 1
-1 -1 -1 -1 -1 -0 0 0 -0 -0 -0 -0 -0 -1 -2 -3 -3 -1 1 2 1 0 0 1 2 2 3 -1 -4 -4 -2 0 1 1 1 0 0 0 0 0 -0 -1 -1 -1 -1 -0 0 0 1 1 1 1 0 0 0 0 -0 -0 -1 -0 -0 -0 -0 0 0 0 -0 -0 -0 -0 0 0 0 0 -0 -0 -0 0 0 0 1 1 0 0 0 0 0 0 0 0 0 0 0 0 0 1 1 1 1 1 1 1 1
-1 -1 -1 -1 -1 -0 -0 -0 -0 -0 -0 -1 -1 -1 -2 -3 -2 -0 -0 1 1 0 -1 0 1 2 2 -1 -3 -3 -2 0 1 1 1 1 0 0 0 -0 -0 -1 -1 -1 -1 -0 0 1 1 1 1 1 0 0 0 0 -0 -1 -1 -0 -0 0 0 0 0 -0 -0 -1 -1 -0 -0 0 0 0 0 -0 0 0 0 0 0 1 0 0 0 0 0 0 0 0 0 -0 0 0 0 1 1 1 1 1 1 1 1
-1 -1 -1 -1 -0 -0 -0 -0 -0 -0 -1 -1 -1 -1 -2 -2 0 2 -0 1 1 0 -1 -1 0 1 1 -1 -2 -3 -2 0 1 1 1 1 0 0 -0 -0 -1 -1 -1 -1 -1 -0 0 1 1 1 1 0 0 0 0 0 -0 -1 -1 -0 0 0 1 0 -0 -0 -1 -1 -1 -1 -0 0 0 0 0 0 0 0 0 0 0 0 0 0 0 0 0 0 0 0 0 0 0 0 0 1 1 1 1 1 1 0 0
-1 -1 -1 -1 -0 -0 -1 -1 -1 -0 -1 -1 -1 -1 -2 -2 0 1 -0 1 1 0 -1 -1 -1 0 0 -1 -2 -2 -2 0 1 1 1 0 0 0 -0 -0 -1 -1 -1 -1 -0 -0 0 1 1 1 1 0 0 1 1 0 -0 -1 -0 -0 0 0 1 0 0 -0 -1 -1 -1 -1 -1 0 0 1 1 1 1 1 1 1 1 0 0 0 0 0 0 0 0 0 0 0 0 1 1 1 1 1 1 0 0 -0 -0
-1 -1 -1 -0 -0 -0 -1 -1 -0 -0 -1 -1 -1 -1 -2 -2 -1 0 -0 -0 1 1 -1 -1 -1 -0 -0 -1 -2 -2 -2 -0 0 0 0 0 -0 -0 -0 -0 -1 -1 -1 -1 -0 0 0 0 1 1 1 1 1 1 1 0 -0 -0 -0 -0 0 1 1 0 0 -0 -0 -0 -1 -0 -0 -0 0 1 1 1 1 1 1 1 1 1 1 0 0 0 0 0 0 0 0 0 0 0 0 0 0 0 0 -0 -0 -1 -1
-1 -1 -1 -0 0 0 -0 0 -0 -0 -0 -1 -1 -1 -1 -2 -1 1 1 1 1 1 -1 -1 -1 0 -0 -1 -2 -2 -1 -1 -0 0 -0 -0 -1 -1 -1 -1 -0 -1 -1 -0 -0 -0 0 0 1 1 1 1 1 1 1 0 0 -0 -0 -0 0 1 1 1 0 -0 -0 -0 -0 -0 -0 -0 0 0 1 1 1 2 2 2 2 2 1 1 1 1 1 0 0 0 0 0 0 0 0 -0 -0 -1 -1 -1 -1 -1 -1
-1 -1 -1 0 1 1 1 1 0 0 0 -0 -0 -0 -1 -2 -1 1 2 3 2 1 -0 -1 -0 0 0 -1 -2 -2 -2 -1 -0 -0 -0 -1 -1 -1 -1 -1 -0 -0 -0 -0 -0 0 0 0 0 0 0 1 1 1 0 0 0 -0 -0 0 0 0 0 0 0 -0 -0 -0 -0 -0 -0 -0 -0 0 0 1 1 1 2 2 2 2 2 2 2 2 1 1 1 1 0 0 -0 -0 -0 -1 -1 -1 -1 -1 -1 -1 -1
-1 -1 -1 0 1 1 1 1 1 1 1 0 0 -0 -1 -1 -1 -0 1 1 1 0 -0 -0 0 1 -0 -1 -2 -2 -2 -1 -1 -1 -0 -0 -0 -0 -0 -0 -0 -0 -0 -0 -0 0 0 0 0 0 0 1 1 1 0 0 0 0 0 0 0 0 0 0 -0 -0 -0 -0 -0 -0 -0 0 0 0 0 0 1 1 1 1 2 2 2 2 2 1 1 1 1 1 0 0 -0 -1 -1 -1 -1 -1 -1 -1 -1 -1 -0
-1 -1 -1 1 2 2 2 1 2 2 1 1 0 0 -0 -1 -1 -0 0 0 0 -0 -1 0 1 1 -0 -1 -2 -2 -1 -1 -1 -1 -1 -0 -0 -0 -0 -0 -0 -0 -0 -0 -0 0 0 0 0 0 0 0 1 1 1 1 0 0 0 0 0 0 -0 -0 -0 -0 -0 -0 -0 -0 -0 0 0 1 1 1 1 1 1 1 1 1 2 2 1 1 1 1 1 1 0 -0 -0 -1 -1 -1 -1 -1 -1 -1 -0 -0 -0
-1 -2 -0 4 4 2 2 2 2 1 0 1 1 1 -0 -0 -0 -0 0 0 -0 -1 -1 0 1 1 0 -1 -2 -1 -1 -1 -1 -1 -0 -0 0 0 0 -0 -0 -0 -0 -0 0 0 0 0 -0 -0 0 0 1 1 1 1 1 1 0 0 0 0 -0 -1 -1 -1 -1 -1 -1 -1 -0 0 1 1 1 1 1 2 2 1 1 1 1 1 1 0 1 1 0 0 0 -0 -0 -1 -1 -1 -1 -1 -0 -0 -0 -1 -0
-2 -1 3 9 5 0 2 2 1 1 -0 1 1 1 -0 -0 0 0 0 0 -0 -1 -1 -0 1 1 -0 -1 -1 -1 -1 -1 -0 -0 -1 -0 -0 -0 0 -0 -0 -0 0 0 0 0 0 -0 -0 -0 0 0 0 1 1 1 1 1 0 0 0 -0 -1 -1 -1 -1 -1 -1 -1 -1 -0 -0 0 1 1 1 1 1 1 1 1 1 1 0 0 0 0 -0 -0 -0 -0 -0 -0 -0 -0 -1 -0 -0 0 0 -0 -0 -0
-2 -1 3 5 2 -1 1 1 1 0 -0 1 1 1 0 0 0 0 0 0 -1 -2 -1 -0 0 0 -1 -1 -1 -1 -1 -0 -0 -1 -1 -1 -0 -0 -0 -0 -0 -0 0 0 0 0 -0 -0 -0 -0 0 0 0 1 1 1 1 1 0 0 -0 -0 -1 -1 -1 -1 -1 -1 -1 -1 -1 -1 -0 0 0 1 1 1 1 1 1 1 1 0 0 0 0 -0 -0 -1 -1 -1 -1 -0 0 0 0 0 0 0 -0 -1 -0
-2 -1 2 1 -0 -1 0 1 0 -0 -0 0 1 1 1 1 1 1 0 0 -1 -2 -2 -1 -1 -0 -0 -1 -1 -1 -0 -0 -0 -1 -1 -1 -1 -0 -0 -0 -0 0 0 0 0 0 -0 -1 -1 -0 0 0 0 1 1 1 1 1 0 0 -0 -0 -0 -0 -1 -1 -1 -1 -1 -1 -1 -1 -1 -0 -0 0 0 0 1 1 1 1 1 1 1 1 0 0 -0 -0 -0 -0 -0 -0 0 0 -0 -0 -0 0 -0 -0 -0
-2 -1 0 1 -0 -1 -0 1 0 -1 -1 0 1 1 1 1 1 1 1 0 -1 -2 -2 -1 -1 -0 0 -0 -0 -0 0 -0 -1 -1 -1 -1 -1 -1 -0 -0 0 0 0 0 0 -0 -0 -1 -1 -0 0 0 0 0 1 1 1 1 0 0 0 -0 0 -0 -1 -1 -1 -1 -1 -1 -0 -0 -0 -0 -0 0 0 0 1 1 1 1 1 1 1 1 1 0 0 0 0 0 0 0 0 -0 -1 -1 -1 -0 -0 0 -0
-2 -1 -0 0 0 -0 0 -0 -1 -1 -0 0 1 1 1 1 1 1 1 0 -1 -1 -1 -1 -0 0 0 0 0 0 -0 -0 -1 -1 -1 -1 -1 -1 -0 0 0 0 0 0 0 -0 -1 -1 -1 -0 0 0 0 0 1 1 1 1 0 0 0 0 0 -0 -1 -1 -1 -1 -1 -1 -0 -0 -0 -0 0 0 0 0 0 1 1 1 1 1 1 1 1 1 1 1 1 1 0 0 -0 0 0 -0 -1 -1 -1 -1 -1
0 -1 -0 0 0 -0 -0 -2 -2 -1 1 1 1 1 1 1 2 2 2 1 -0 -1 -1 -0 0 0 0 0 0 0 -0 -1 -1 -1 -2 -1 -1 -1 -0 0 0 0 0 0 -0 -0 -1 -1 -0 -0 0 0 0 0 1 1 1 1 1 0 0 0 0 -0 -1 -1 -1 -1 -1 -1 -0 -0 0 0 0 0 0 1 1 1 1 1 1 1 1 1 1 1 1 1 1 1 1 1 1 1 1 1 1 0 -0 -1 -1
4 0 0 0 -0 -1 -1 -2 -2 -1 0 1 1 1 1 1 2 2 2 1 0 -0 -1 0 1 0 -0 -0 -0 -0 -1 -1 -1 -1 -2 -2 -1 -1 0 0 0 0 0 0 -0 -0 -0 -0 -0 0 0 0 0 1 1 1 1 1 0 0 0 0 -0 -1 -1 -1 -1 -1 -1 -1 -0 -0 0 0 1 1 1 1 1 1 1 1 1 0 0 0 0 0 0 0 0 0 0 0 1 1 1 1 1 1 0 0 -0
8 6 4 2 1 -0 0 -1 -1 -1 0 1 2 1 1 1 1 2 3 2 1 -0 -0 1 1 0 -0 -0 -0 -1 -1 -1 -1 -1 -1 -1 -1 -0 -0 -0 0 0 0 -0 -0 -0 -0 -0 -0 0 0 0 0 1 1 1 0 0 0 0 0 0 -0 -1 -1 -1 -1 -1 -1 -0 -0 0 0 1 1 1 1 1 1 1 1 1 1 0 0 0 0 0 -0 -0 -0 0 0 0 1 0 0 -0 -0 -0 -0 0 0
8 13 15 10 5 2 2 -1 -2 -1 1 2 2 1 1 0 1 2 3 2 1 -0 -0 1 0 0 0 -0 -1 -1 -1 -1 -1 -1 -1 -1 -0 -0 -0 -0 0 0 0 0 0 0 0 -0 -0 -0 -0 0 0 0 0 0 0 0 0 0 0 -0 -1 -1 -1 -2 -1 -1 -1 -0 0 0 1 1 1 1 1 1 1 1 1 1 1 1 0 0 0 -0 -0 -0 -0 0 0 0 0 -0 -0 -1 -1 -1 -0 -0 0
4 11 20 15 10 6 3 -1 -2 -1 1 2 2 1 1 0 1 1 3 2 1 0 0 0 0 0 0 -0 -1 -1 -1 -1 -1 -1 -1 -0 -0 -0 -0 0 0 0 0 0 0 0 0 -0 -0 -0 -0 0 0 0 0 0 0 0 0 0 -0 -0 -1 -1 -2 -2 -1 -1 -1 -0 0 0 1 1 1 1 1 2 2 2 2 2 1 1 1 0 0 0 0 0 0 0 -0 -0 -1 -1 -1 -1 -1 -0 -0 0 0
0 4 14 17 14 8 3 -0 -1 -1 2 3 2 1 0 0 0 1 2 2 1 0 0 1 1 1 0 -0 -1 -1 -1 -1 -1 -1 -1 -0 -0 -0 0 1 1 0 0 0 1 0 0 0 -0 -0 -0 -0 -0 -0 -0 -0 0 0 0 0 -0 -0 -1 -1 -2 -2 -1 -1 -0 -0 0 0 1 1 1 1 2 2 2 2 2 2 1 1 1 1 1 0 0 0 0 -0 -1 -1 -1 -1 -1 -1 -0 -0 0 0 -0
1 1 4 12 13 10 5 0 -2 -1 2 2 2 1 0 0 -0 0 1 1 1 0 0 1 1 1 -0 -0 -0 -0 -1 -0 -0 -0 -0 -0 0 0 0 1 1 0 1 1 1 0 0 -0 -0 -1 -1 -1 -0 -0 -0 -0 0 0 0 0 -0 -1 -1 -2 -2 -2 -1 -1 -0 -0 0 0 1 1 1 2 2 2 2 2 1 1 1 1 1 1 1 1 0 0 -0 -0 -1 -1 -1 -1 -1 -0 -0 -0 -0 -0 -1
2 3 2 5 9 12 11 2 -1 -1 2 1 1 0 0 -0 -1 -0 1 1 1 0 0 1 1 1 0 0 -0 -1 -1 -0 -0 -0 -0 0 0 0 1 1 0 0 1 1 1 0 -0 -0 -0 -1 -1 -1 -0 -0 -0 0 0 0 0 0 -0 -1 -1 -2 -2 -1 -1 -1 -0 -0 0 0 1 1 2 2 2 2 2 1 1 1 1 1 1 1 1 0 0 -0 -0 -1 -1 -1 -1 -0 -0 -0 -0 -0 -0 -1 -1
2 3 2 1 6 12 16 6 2 0 2 1 0 0 0 -1 -1 -0 0 0 0 0 0 1 1 1 1 0 0 -0 -0 -0 -0 -0 0 0 1 1 1 0 0 0 0 1 0 -0 -0 -0 -1 -1 -1 -0 -0 -0 0 0 0 0 1 0 -0 -1 -2 -2 -2 -1 -1 -1 -0 -0 -0 0 0 1 1 2 2 1 1 1 1 1 1 1 1 1 0 0 -0 -1 -1 -1 -1 -0 -0 0 0 0 0 -0 -0 -1 -1
2 2 2 -0 1 6 13 9 6 4 3 2 1 0 0 -0 0 0 -0 -0 0 0 0 1 1 1 1 1 0 0 -0 -0 -0 -0 1 1 1 1 0 0 0 0 0 0 0 -0 -0 -0 -1 -1 -1 -0 0 0 0 0 0 0 0 0 -1 -1 -1 -2 -2 -1 -1 -1 -0 -0 -0 0 0 1 1 1 1 1 1 1 1 1 1 1 1 0 -0 -1 -1 -1 -1 -1 -0 -0 0 0 0 0 -0 -0 -0 -1 -1
2 2 1 -1 -2 -0 5 8 10 10 7 4 2 1 1 1 1 0 -0 -0 0 0 0 0 1 1 1 1 0 0 -0 -1 -0 1 1 1 1 0 0 0 0 0 1 0 -0 -0 -0 -0 -0 -0 -0 0 0 0 0 0 0 0 0 -0 -1 -1 -1 -1 -1 -1 -1 -1 -1 -0 -0 -0 0 0 0 0 0 0 1 1 1 1 1 1 0 -0 -1 -1 -1 -1 -1 -0 -0 0 0 -0 -0 -0 -1 -1 -1 -0 -0
1 2 1 -2 -3 -3 -1 3 8 11 11 7 4 2 2 1 1 0 -0 0 0 0 0 0 0 0 1 1 0 0 -0 -0 0 1 1 1 1 0 0 -0 0 0 1 0 -0 -0 -0 -0 -0 -0 -0 0 1 1 0 0 0 0 0 -0 -1 -1 -1 -1 -1 -1 -1 -1 -1 -1 -1 -0 -0 -0 -0 -0 -0 0 0 1 1 1 1 0 -0 -1 -1 -1 -1 -1 -0 -0 0 -0 -0 -1 -1 -1 -1 -1 -1 -1 -1
1 1 0 -2 -3 -3 -3 -1 3 8 13 9 6 3 2 1 0 -0 -0 0 0 1 0 0 0 0 0 0 0 0 0 0 1 1 1 1 1 0 0 -0 0 0 0 0 0 0 0 0 0 0 0 1 1 1 0 0 0 0 0 -0 -0 -1 -1 -1 -1 -1 -1 -1 -1 -1 -1 -1 -1 -1 -0 -0 -0 0 0 1 1 0 0 -0 -1 -1 -1 -1 -1 -0 0 0 -0 -1 -1 -1 -1 -1 -1 -1 -1 -1 -1
1 1 1 -1 -3 -3 -3 -2 0 5 11 11 8 4 1 -0 -1 -1 -1 0 1 1 0 1 0 -0 -0 0 0 0 1 1 1 1 1 1 1 0 -0 -0 0 0 0 0 0 0 0 0 0 0 0 1 1 1 0 0 0 0 0 -0 -0 -1 -1 -1 -1 -1 -1 -1 -1 -1 -1 -0 -0 -0 -0 0 0 1 1 1 0 -0 -1 -1 -1 -1 -1 -0 -0 0 0 -0 -0 -1 -1 -1 -1 -1 -0 -0 -0 -1 -1
0 1 1 -1 -2 -3 -3 -2 -1 2 7 10 8 3 -1 -1 -1 -1 -1 0 1 1 1 1 1 0 0 1 0 1 1 1 1 1 2 1 1 0 -0 -0 0 0 0 0 0 0 0 0 0 0 1 1 1 0 0 0 0 0 -0 -0 -0 -1 -1 -1 -1 -1 -1 -1 -1 -0 -0 0 0 0 0 0 1 1 1 0 -0 -1 -1 -1 -1 -1 -1 -0 -0 0 -0 -0 -1 -1 -1 -1 -0 -0 -0 -0 -0 -0 -1
-0 0 1 -1 -2 -2 -2 -1 -1 1 3 6 6 4 1 0 -0 -0 0 1 2 2 3 2 1 0 1 1 1 1 2 1 2 2 3 1 0 0 0 0 0 0 0 0 0 0 0 1 1 1 1 1 1 1 0 0 0 0 0 0 -0 -0 -0 -0 -0 -0 -0 -0 -0 0 0 1 1 1 1 1 1 1 0 -0 -1 -1 -2 -2 -1 -1 -1 -1 -1 -1 -1 -1 -1 -0 -0 0 0 0 0 0 -0 -0 -1
-1 -0 0 -1 -1 -2 -2 -1 -1 -0 -0 2 4 4 3 1 0 -0 -0 0 1 2 3 2 1 0 1 1 1 1 2 1 2 3 3 0 -0 -1 -0 -0 1 1 0 0 0 0 0 1 1 1 1 1 1 0 0 0 0 -0 -0 -0 -0 -0 -0 -0 -0 -0 -0 -0 0 1 1 1 1 1 1 1 0 0 -0 -1 -1 -2 -2 -1 -1 -1 -1 -1 -1 -1 -1 -1 -1 -0 0 1 1 0 0 -0 -0 -1 -1
-1 -1 -0 -1 -1 -2 -2 -1 -1 -1 -1 -0 2 3 3 2 0 -1 -1 -1 0 1 2 1 1 0 0 1 1 1 1 2 2 2 1 -0 -0 -0 -0 1 2 1 -0 1 0 -0 1 1 1 1 2 1 1 0 0 0 0 -0 -0 -0 -0 -0 0 0 -0 -0 -0 -0 0 1 1 1 1 1 0 0 -0 -1 -1 -2 -2 -2 -1 -1 -1 -1 -1 -1 -2 -2 -2 -1 -1 -0 0 0 0 0 -0 -1 -1 -1 -1
-1 -1 -1 -1 -1 -2 -2 -1 -1 -1 -1 -1 0 2 3 2 1 -0 -1 -1 -0 1 2 1 1 1 1 1 1 1 1 2 2 2 0 0 0 1 1 3 1 -0 -1 1 0 -0 1 1 1 1 1 1 0 0 0 0 -0 -0 -0 -0 -0 0 0 0 -0 -0 -0 -0 0 0 0 0 0 0 0 -0 -1 -1 -2 -2 -2 -1 -1 -1 -1 -1 -1 -1 -1 -1 -2 -1 -1 -0 0 0 -0 -0 -1 -1 -1 -1 -2
-1 -1 -1 -1 -1 -1 -2 -1 -1 -1 -1 -1 0 1 3 2 1 -0 -1 -1 -0 0 1 1 1 2 2 1 1 1 0 1 2 2 1 1 1 1 1 1 -0 -1 -0 1 0 -0 -1 1 2 1 -0 1 0 0 -0 -0 -0 -1 -0 -0 0 0 0 0 -0 -0 -0 -0 -0 -0 -0 -0 -0 -0 -0 -1 -1 -2 -2 -2 -1 -1 -1 -1 -1 -1 -1 -1 -1 -1 -1 -1 -1 -1 -0 -0 -1 -1 -1 -1 -2 -2 -2
-2 -2 -2 -1 -1 -1 -2 -2 -2 -1 -1 -0 1 2 3 2 1 -0 -1 -1 -1 -0 1 1 2 2 2 1 1 1 1 1 2 2 1 0 0 0 0 1 1 2 1 1 0 -1 -0 2 2 0 -0 1 1 0 -0 -0 -0 -1 -0 0 0 1 0 0 -0 -0 -0 -0 -0 -0 -0 -0 -0 -0 -1 -1 -2 -2 -2 -1 -1 -1 -0 -0 -0 -0 -0 -0 -0 -0 -0 -1 -1 -1 -1 -1 -1 -1 -2 -2 -2 -2 -2
-3 -2 -2 -1 -1 -2 -2 -2 -2 -1 -0 0 1 2 3 2 1 -0 -0 -0 -0 0 1 2 2 2 2 2 1 1 2 2 2 2 2 1 0 1 1 2 2 1 0 0 -1 -0 2 2 1 0 -0 1 1 0 -1 -1 -0 -0 -0 1 1 1 0 -0 -0 -0 -0 -0 -0 -0 -0 -0 -0 -1 -1 -2 -2 -2 -1 -1 -0 -0 -0 -0 -0 -0 -0 -0 -0 -0 -0 -1 -1 -1 -1 -2 -2 -2 -2 -2 -2 -2 -1
-3 -2 -2 -2 -2 -2 -3 -3 -2 -1 -0 1 2 3 3 2 1 1 1 0 0 1 1 2 2 2 1 2 2 2 2 3 3 3 2 1 1 2 2 1 -0 -1 -0 -1 -0 1 2 2 1 1 -1 1 1 0 -1 -1 -0 0 0 1 1 0 -0 -1 -1 -0 -0 -0 -0 -1 -1 -0 -0 -1 -2 -2 -2 -1 -1 -0 -0 -0 -0 -0 -0 -0 -1 -1 -0 -0 -0 -0 -1 -1 -1 -2 -2 -2 -2 -2 -2 -1 -1
-3 -3 -2 -2 -2 -3 -4 -3 -2 -1 0 1 2 3 3 2 2 1 0 -0 -0 0 1 2 2 1 1 2 2 3 3 3 3 3 2 2 2 2 2 1 1 1 1 0 1 2 1 2 1 0 1 1 -0 -0 1 0 0 0 1 1 1 0 -1 -1 -1 -0 -0 -0 -1 -1 -1 -0 -1 -1 -2 -2 -1 -1 -0 0 0 -0 -0 -1 -1 -1 -1 -0 -0 0 0 0 -0 -0 -1 -1 -1 -1 -2 -2 -1 -1 -1
-3 -3 -3 -2 -3 -3 -4 -3 -2 -1 -0 1 2 4 4 2 0 -1 -1 -1 -0 0 2 2 2 1 1 2 3 3 3 2 2 2 3 3 2 2 2 2 2 2 2 2 2 2 1 1 1 0 2 0 -1 -1 1 1 0 0 0 1 0 -0 -1 -1 -1 -0 -0 -1 -1 -1 -1 -1 -1 -1 -1 -1 -1 -1 -0 -0 -0 -0 -0 -1 -1 -1 -1 -0 0 1 1 1 0 0 -0 -0 -0 -1 -1 -1 -1 -1 -0
-3 -3 -3 -2 -2 -3 -4 -3 -2 -1 -0 1 2 4 3 1 -1 -1 -0 0 0 1 2 2 1 1 2 2 3 3 2 2 2 3 3 3 2 1 2 2 1 1 1 1 1 1 1 1 0 1 1 -1 -1 -1 -0 -0 0 1 1 1 1 0 -0 -0 -0 -0 -0 -1 -1 -1 -1 -1 -1 -0 -0 -1 -1 -1 -1 -0 -0 -0 -0 -1 -0 -0 0 1 1 1 2 1 1 1 1 1 0 0 -0 -0 -1 -1 -0
-3 -3 -2 -2 -2 -3 -4 -3 -2 -1 -0 1 3 3 3 0 -0 -0 1 1 1 1 1 1 2 2 2 2 2 2 1 2 2 3 3 2 1 1 2 2 1 1 1 1 1 1 1 0 0 0 0 -1 -0 -0 -1 -1 -0 1 1 1 1 0 -0 0 0 0 -0 -1 -1 -1 -0 -0 -1 -0 -0 -1 -1 -1 -1 -1 -0 -0 0 0 0 1 1 2 2 2 2 1 1 1 1 1 1 1 0 0 -0 -0 0
Height
5846 5845 5845 5845 5845 5845 5845 5845 5845 5845 5845 5846 5846 5846 5847 5847 5847 5847 5847 5848 5848 5849 5849 5849 5849 5850 5850 5850 5850 5851 5851 5851 5852 5853 5853 5854 5854 5854 5854 5854 5854 5854 5854 5854 5854 5853 5853 5853 5853 5853 5853 5853 5852 5852 5852 5852 5852 5852 5851 5851 5851 5850 5850 5850 5849 5849 5849 5849 5849 5849 5849 5848 5848 5848 5848 5847 5847 5847 5846 5846 5846 5846 5845 5845 5845 5845 5844 5844 5844 5844 5844 5844 5843 5843 5843 5843 5843 5842 5842 5842 5842 5841 5841
5844 5844 5844 5844 5844 5844 5844 5844 5844 5844 5844 5844 5844 5845 5845 5845 5845 5845 5846 5846 5847 5847 5847 5848 5848 5848 5849 5849 5849 5849 5850 5850 5851 5851 5852 5852 5853 5853 5853 5853 5853 5853 5853 5852 5852 5852 5852 5852 5852 5852 5852 5851 5851 5851 5851 5851 5851 5850 5850 5850 5850 5849 5849 5849 5849 5848 5848 5848 5848 5848 5848 5848 5847 5847 5847 5847 5846 5846 5846 5845 5845 5845 5845 5844 5844 5844 5844 5844 5843 5843 5843 5843 5842 5842 5842 5842 5842 5841 5841 5841 5841 5840 5840
5843 5843 5843 5842 5842 5842 5842 5842 5842 5842 5842 5843 5843 5844 5844 5844 5844 5844 5844 5844 5845 5845 5846 5846 5847 5847 5847 5848 5848 5848 5848 5849 5849 5850 5850 5851 5851 5851 5851 5851 5851 5851 5851 5851 5851 5851 5851 5851 5851 5851 5850 5850 5850 5850 5850 5850 5850 5849 5849 5849 5849 5849 5848 5848 5848 5848 5847 5847 5847 5847 5847 5847 5846 5846 5846 5846 5845 5845 5845 5845 5844 5844 5844 5844 5843 5843 5843 5843 5842 5842 5842 5842 5842 5841 5841 5841 5841 5840 5840 5840 5840 5839 5839
5841 5841 5841 5841 5841 5841 5841 5841 5841 5841 5841 5841 5842 5842 5842 5843 5843 5843 5843 5843 5844 5844 5844 5845 5845 5846 5846 5846 5846 5847 5847 5847 5848 5849 5849 5849 5849 5850 5850 5850 5850 5850 5850 5850 5850 5850 5850 5850 5849 5849 5849 5849 5849 5849 5849 5849 5849 5849 5849 5848 5848 5848 5847 5847 5847 5847 5846 5846 5846 5846 5846 5846 5845 5845 5845 5845 5845 5844 5844 5844 5844 5844 5843 5843 5843 5842 5842 5842 5841 5841 5841 5841 5841 5840 5840 5840 5840 5839 5839 5839 5839 5838 5838
5840 5840 5840 5840 5839 5839 5839 5839 5839 5840 5839 5840 5840 5840 5841 5841 5841 5841 5841 5842 5842 5843 5843 5844 5844 5844 5844 5845 5845 5845 5845 5846 5846 5847 5848 5848 5848 5848 5848 5849 5849 5849 5849 5849 5849 5849 5849 5849 5849 5849 5848 5848 5848 5848 5848 5848 5848 5848 5848 5847 5847 5847 5846 5846 5846 5846 5845 5845 5845 5845 5845 5844 5844 5844 5844 5844 5844 5844 5844 5843 5843 5843 5842 5842 5842 5841 5841 5841 5840 5840 5840 5840 5839 5839 5839 5839 5839 5839 5838 5838 5838 5837 5837
5838 5839 5839 5839 5838 5838 5838 5838 5838 5838 5839 5839 5839 5839 5840 5840 5840 5840 5840 5840 5841 5841 5841 5842 5843 5843 5843 5843 5843 5844 5844 5844 5845 5846 5846 5846 5847 5847 5847 5847 5847 5848 5848 5848 5848 5847 5847 5847 5847 5847 5847 5847 5847 5847 5847 5847 5847 5847 5846 5846 5846 5846 5845 5845 5845 5845 5844 5844 5844 5844 5844 5844 5844 5844 5844 5843 5843 5843 5843 5843 5842 5842 5841 5841 5841 5840 5840 5840 5839 5839 5839 5839 5839 5838 5838 5838 5838 5837 5837 5837 5837 5836 5836
5836 5837 5837 5837 5837 5836 5836 5836 5836 5837 5837 5839 5838 5837 5838 5838 5838 5839 5839 5839 5839 5839 5840 5840 5840 5841 5841 5841 5842 5842 5843 5843 5844 5844 5845 5845 5845 5845 5845 5846 5846 5846 5846 5846 5846 5846 5846 5846 5846 5846 5846 5846 5846 5846 5846 5846 5846 5846 5845 5845 5845 5845 5844 5844 5844 5844 5844 5843 5843 5843 5843 5843 5843 5843 5843 5842 5842 5842 5842 5842 5841 5841 5841 5840 5840 5840 5839 5839 5839 5838 5838 5838 5838 5837 5837 5837 5837 5836 5836 5836 5835 5835 5835
5834 5835 5835 5836 5835 5835 5834 5834 5834 5835 5835 5836 5836 5835 5836 5836 5837 5837 5837 5838 5838 5838 5838 5839 5839 5839 5840 5840 5840 5840 5841 5842 5843 5843 5843 5844 5844 5844 5844 5844 5844 5845 5845 5845 5845 5845 5845 5845 5845 5845 5845 5845 5845 5845 5845 5845 5845 5844 5844 5844 5844 5844 5844 5843 5843 5843 5843 5842 5842 5842 5842 5842 5842 5842 5842 5841 5841 5841 5841 5841 5840 5840 5840 5839 5839 5839 5839 5838 5838 5837 5837 5837 5837 5836 5836 5836 5835 5835 5835 5834 5834 5834 5834
5832 5833 5834 5834 5834 5834 5833 5833 5833 5833 5833 5834 5834 5834 5834 5834 5835 5835 5836 5836 5837 5837 5837 5837 5838 5839 5838 5838 5838 5839 5839 5840 5841 5841 5842 5842 5842 5842 5843 5843 5843 5843 5844 5844 5844 5844 5844 5844 5844 5844 5844 5844 5844 5844 5844 5844 5844 5843 5843 5843 5843 5843 5843 5842 5842 5842 5842 5841 5841 5841 5841 5841 5841 5841 5840 5840 5840 5840 5840 5840 5839 5839 5839 5839 5838 5838 5838 5837 5837 5836 5836 5836 5835 5835 5835 5834 5834 5834 5834 5833 5833 5833 5832
5830 5831 5832 5832 5832 5832 5831 5831 5831 5831 5831 5832 5832 5832 5833 5833 5834 5834 5834 5835 5835 5835 5836 5836 5837 5837 5836 5836 5837 5837 5838 5839 5839 5840 5840 5840 5840 5841 5841 5841 5842 5842 5842 5842 5842 5842 5842 5842 5842 5842 5843 5843 5843 5842 5842 5842 5842 5842 5842 5842 5842 5842 5841 5841 5841 5841 5841 5840 5840 5840 5840 5840 5840 5839 5839 5839 5839 5839 5839 5839 5839 5838 5838 5838 5837 5837 5836 5836 5836 5835 5835 5835 5834 5834 5834 5833 5833 5833 5832 5832 5832 5831 5831
5828 5829 5829 5830 5830 5830 5830 5829 5829 5829 5829 5830 5830 5830 5831 5832 5833 5833 5832 5833 5834 5834 5834 5834 5835 5835 5834 5834 5835 5835 5836 5837 5838 5838 5839 5839 5839 5839 5839 5840 5840 5840 5841 5841 5841 5841 5841 5841 5841 5841 5841 5841 5841 5841 5841 5841 5841 5841 5841 5841 5840 5840 5840 5840 5840 5840 5840 5839 5839 5839 5839 5839 5839 5839 5839 5838 5838 5838 5838 5838 5837 5837 5837 5836 5836 5836 5835 5835 5835 5834 5834 5834 5833 5833 5833 5832 5832 5831 5831 5831 5830 5830 5829
5826 5827 5827 5828 5829 5829 5828 5829 5828 5827 5827 5828 5828 5829 5829 5831 5832 5831 5831 5831 5831 5832 5832 5833 5834 5834 5833 5833 5833 5834 5834 5835 5836 5836 5837 5837 5837 5837 5838 5838 5839 5839 5839 5839 5839 5839 5839 5840 5840 5840 5840 5840 5840 5840 5840 5840 5840 5840 5840 5839 5839 5839 5839 5839 5839 5839 5839 5839 5838 5838 5838 5838 5837 5837 5837 5837 5837 5837 5837 5836 5836 5836 5836 5835 5835 5835 5834 5834 5834 5833 5833 5832 5832 5832 5831 5831 5830 5830 5830 5829 5829 5829 5828
5824 5824 5825 5826 5826 5827 5827 5828 5827 5826 5826 5826 5826 5827 5828 5829 5829 5829 5829 5829 5829 5830 5831 5832 5832 5832 5831 5831 5832 5832 5833 5833 5834 5835 5835 5835 5835 5836 5836 5836 5837 5837 5838 5838 5838 5838 5838 5839 5839 5839 5839 5839 5839 5839 5839 5839 5839 5839 5839 5838 5838 5838 5838 5838 5838 5838 5837 5837 5837 5837 5837 5836 5836 5836 5836 5836 5836 5835 5835 5835 5835 5834 5834 5834 5834 5834 5833 5833 5832 5832 5832 5831 5831 5830 5830 5829 5829 5829 5828 5828 5827 5827 5826
5822 5822 5823 5824 5824 5825 5825 5825 5825 5825 5825 5824 5824 5825 5826 5826 5827 5827 5827 5827 5828 5829 5829 5831 5831 5831 5830 5830 5830 5830 5831 5832 5832 5833 5833 5834 5834 5834 5834 5835 5835 5836 5836 5837 5837 5837 5837 5837 5837 5837 5838 5838 5837 5837 5837 5837 5837 5837 5837 5837 5837 5837 5837 5837 5837 5836 5836 5836 5836 5836 5835 5835 5835 5835 5835 5834 5834 5834 5834 5834 5834 5833 5833 5833 5832 5832 5832 5831 5831 5831 5830 5830 5829 5829 5829 5828 5828 5827 5827 5826 5826 5825 5825
5819 5820 5820 5821 5822 5823 5823 5823 5824 5824 5824 5823 5823 5823 5824 5825 5825 5825 5826 5826 5826 5827 5827 5828 5829 5829 5829 5828 5828 5829 5829 5830 5831 5831 5832 5832 5832 5833 5833 5833 5834 5834 5835 5835 5835 5835 5836 5836 5836 5836 5836 5836 5836 5836 5836 5836 5836 5836 5836 5836 5836 5836 5836 5836 5835 5835 5835 5835 5834 5834 5834 5834 5834 5834 5833 5833 5833 5833 5833 5832 5832 5832 5832 5831 5831 5831 5830 5830 5830 5829 5829 5828 5828 5827 5827 5827 5826 5826 5825 5825 5824 5824 5823
5817 5818 5818 5819 5819 5820 5821 5821 5822 5822 5823 5822 5822 5822 5822 5823 5824 5824 5824 5824 5824 5825 5825 5825 5826 5827 5827 5827 5827 5827 5827 5828 5829 5829 5830 5830 5830 5831 5831 5832 5832 5833 5834 5834 5834 5834 5834 5834 5834 5835 5835 5835 5835 5835 5835 5835 5835 5835 5835 5835 5835 5835 5834 5834 5834 5834 5834 5834 5833 5833 5833 5833 5833 5832 5832 5832 5832 5831 5831 5831 5831 5830 5830 5830 5829 5829 5829 5829 5828 5828 5827 5827 5826 5826 5825 5825 5824 5824 5824 5823 5823 5822 5822
5815 5815 5816 5817 5817 5818 5819 5819 5819 5820 5820 5820 5820 5820 5820 5821 5822 5822 5823 5823 5823 5823 5824 5824 5824 5825 5825 5825 5825 5825 5826 5826 5827 5828 5828 5829 5829 5829 5829 5830 5831 5831 5832 5832 5833 5833 5833 5833 5833 5833 5834 5834 5834 5834 5834 5834 5834 5834 5834 5834 5834 5834 5834 5833 5833 5833 5833 5832 5832 5832 5832 5831 5831 5831 5831 5830 5830 5830 5829 5829 5829 5829 5829 5828 5828 5828 5827 5827 5827 5826 5826 5825 5825 5824 5824 5823 5823 5822 5822 5821 5821 5820 5820
5813 5813 5814 5814 5815 5816 5816 5817 5818 5818 5818 5819 5818 5818 5819 5819 5820 5820 5821 5821 5821 5822 5822 5822 5823 5823 5824 5823 5823 5823 5824 5825 5825 5826 5827 5827 5827 5828 5828 5829 5829 5830 5830 5830 5831 5831 5831 5832 5832 5832 5832 5832 5832 5832 5832 5832 5832 5832 5833 5832 5832 5832 5832 5832 5832 5831 5831 5831 5831 5830 5830 5830 5830 5829 5829 5829 5829 5829 5828 5828 5828 5827 5827 5827 5826 5826 5826 5825 5825 5824 5824 5824 5823 5823 5822 5822 5821 5821 5820 5820 5819 5819 5818
5811 5811 5811 5812 5813 5814 5814 5815 5815 5816 5816 5817 5817 5816 5817 5817 5818 5819 5819 5820 5820 5820 5820 5821 5821 5822 5822 5821 5821 5821 5822 5823 5824 5825 5825 5826 5826 5826 5827 5827 5828 5828 5829 5829 5829 5829 5830 5830 5830 5830 5831 5831 5831 5831 5831 5831 5831 5831 5831 5831 5831 5831 5831 5830 5830 5830 5830 5829 5829 5829 5829 5829 5828 5828 5828 5828 5827 5827 5827 5826 5826 5826 5825 5825 5825 5824 5824 5824 5823 5823 5822 5822 5821 5821 5820 5820 5819 5819 5818 5818 5817 5817 5816
5808 5809 5809 5810 5810 5811 5812 5812 5813 5814 5814 5814 5815 5815 5815 5815 5816 5817 5818 5818 5819 5818 5819 5819 5819 5820 5820 5820 5819 5819 5820 5821 5822 5823 5824 5824 5824 5824 5825 5825 5826 5826 5827 5827 5828 5828 5828 5829 5829 5829 5829 5829 5830 5830 5830 5830 5830 5830 5830 5830 5830 5829 5829 5829 5829 5829 5828 5828 5828 5828 5827 5827 5827 5826 5826 5826 5826 5825 5825 5825 5824 5824 5824 5824 5823 5823 5822 5822 5822 5821 5820 5820 5819 5819 5819 5818 5818 5817 5816 5816 5815 5815 5814
5806 5807 5807 5807 5808 5809 5809 5810 5811 5811 5812 5813 5813 5813 5814 5814 5815 5816 5816 5817 5817 5817 5817 5817 5818 5818 5818 5818 5818 5818 5818 5819 5820 5821 5822 5822 5823 5823 5823 5824 5824 5824 5825 5825 5826 5826 5827 5827 5827 5828 5828 5828 5828 5828 5829 5829 5829 5829 5829 5829 5828 5828 5828 5828 5827 5827 5827 5827 5826 5826 5826 5826 5825 5825 5825 5824 5824 5824 5824 5823 5823 5823 5822 5822 5821 5821 5821 5820 5820 5819 5819 5818 5818 5817 5817 5816 5816 5815 5814 5814 5814 5813 5812
5804 5804 5805 5805 5806 5806 5807 5808 5809 5809 5810 5810 5811 5811 5812 5812 5814 5814 5815 5815 5815 5815 5815 5815 5816 5816 5816 5816 5816 5816 5817 5818 5819 5819 5820 5821 5821 5821 5822 5822 5822 5823 5823 5824 5824 5824 5825 5825 5826 5826 5827 5827 5827 5827 5827 5827 5827 5827 5827 5827 5827 5827 5826 5826 5826 5826 5825 5825 5824 5824 5824 5824 5824 5823 5823 5823 5823 5822 5822 5821 5821 5821 5820 5820 5820 5819 5819 5819 5818 5817 5817 5816 5816 5815 5815 5814 5814 5813 5813 5812 5811 5811 5810
5801 5802 5802 5803 5803 5804 5805 5805 5806 5807 5808 5808 5809 5809 5809 5810 5811 5813 5813 5813 5813 5813 5813 5814 5814 5814 5814 5814 5814 5815 5815 5816 5817 5818 5819 5819 5819 5819 5820 5820 5821 5821 5822 5822 5823 5823 5824 5824 5824 5825 5825 5825 5825 5826 5826 5826 5826 5826 5826 5826 5825 5825 5825 5825 5824 5824 5824 5824 5823 5823 5823 5823 5822 5822 5821 5821 5821 5820 5820 5820 5819 5819 5819 5818 5818 5818 5817 5817 5816 5816 5815 5815 5814 5814 5813 5813 5812 5811 5811 5810 5809 5809 5808
5799 5799 5799 5800 5801 5802 5802 5803 5804 5804 5805 5806 5807 5807 5807 5808 5809 5810 5811 5812 5812 5811 5811 5812 5812 5812 5813 5813 5813 5813 5814 5814 5815 5816 5817 5817 5817 5818 5818 5819 5819 5819 5820 5820 5821 5821 5822 5823 5823 5824 5824 5824 5824 5824 5824 5824 5824 5824 5824 5824 5824 5824 5824 5823 5823 5823 5822 5822 5822 5821 5821 5821 5820 5820 5820 5820 5819 5819 5819 5818 5818 5818 5817 5817 5816 5816 5815 5815 5814 5814 5814 5813 5812 5812 5811 5811 5810 5809 5809 5808 5807 5807 5806
5796 5796 5797 5798 5798 5799 5800 5801 5802 5802 5803 5804 5804 5805 5805 5805 5806 5808 5809 5809 5810 5810 5809 5810 5810 5810 5811 5811 5811 5811 5812 5813 5814 5814 5815 5815 5816 5816 5816 5817 5817 5818 5818 5819 5819 5820 5820 5821 5822 5822 5822 5823 5823 5823 5823 5823 5823 5823 5823 5823 5823 5823 5822 5822 5821 5821 5821 5820 5820 5820 5819 5819 5819 5818 5818 5818 5818 5817 5817 5817 5816 5816 5815 5815 5814 5814 5814 5813 5813 5812 5812 5811 5810 5810 5809 5809 5808 5807 5807 5806 5805 5805 5804
5793 5794 5794 5795 5796 5797 5798 5799 5799 5800 5801 5801 5802 5803 5803 5804 5804 5805 5806 5807 5808 5809 5807 5808 5808 5808 5809 5809 5809 5809 5810 5811 5812 5812 5813 5813 5814 5814 5814 5815 5815 5816 5817 5817 5818 5818 5819 5819 5820 5820 5821 5821 5821 5822 5822 5821 5822 5822 5822 5821 5821 5821 5821 5820 5820 5820 5819 5819 5819 5818 5818 5818 5817 5817 5816 5816 5816 5816 5815 5815 5814 5814 5814 5813 5813 5813 5812 5812 5811 5810 5810 5809 5809 5808 5807 5807 5806 5805 5805 5804 5803 5803 5802
5791 5791 5792 5793 5793 5794 5795 5796 5797 5798 5799 5799 5800 5800 5801 5801 5802 5803 5804 5805 5805 5805 5804 5805 5806 5806 5807 5807 5807 5808 5808 5809 5810 5810 5811 5811 5812 5812 5813 5813 5814 5814 5815 5815 5816 5817 5817 5818 5819 5819 5819 5820 5820 5820 5820 5820 5820 5820 5820 5820 5820 5819 5819 5819 5819 5818 5818 5818 5817 5817 5816 5816 5816 5815 5815 5814 5814 5814 5814 5813 5813 5813 5812 5812 5811 5811 5810 5810 5809 5809 5808 5808 5807 5806 5805 5805 5804 5804 5803 5802 5802 5801 5800
5788 5788 5789 5790 5791 5791 5793 5794 5794 5795 5796 5797 5798 5798 5799 5799 5800 5800 5801 5801 5802 5802 5803 5803 5804 5804 5805 5805 5805 5806 5807 5807 5808 5808 5809 5809 5810 5810 5811 5811 5812 5813 5813 5814 5814 5815 5816 5816 5817 5818 5818 5818 5819 5819 5819 5819 5819 5819 5819 5818 5818 5818 5818 5817 5817 5817 5816 5816 5815 5815 5815 5814 5814 5814 5814 5813 5813 5812 5812 5812 5811 5811 5810 5810 5809 5809 5809 5808 5808 5807 5807 5806 5805 5804 5804 5803 5803 5802 5801 5800 5800 5799 5798
5785 5786 5787 5788 5788 5789 5790 5791 5792 5793 5794 5794 5795 5796 5797 5798 5798 5799 5799 5799 5799 5800 5801 5801 5802 5803 5803 5803 5804 5804 5805 5805 5806 5806 5807 5808 5808 5809 5809 5810 5810 5811 5812 5812 5813 5814 5814 5815 5815 5816 5816 5817 5817 5817 5817 5817 5817 5817 5817 5817 5817 5816 5816 5816 5815 5815 5815 5814 5814 5814 5813 5813 5813 5812 5812 5812 5811 5811 5810 5810 5809 5809 5809 5808 5808 5807 5807 5806 5806 5805 5804 5804 5803 5802 5802 5802 5801 5800 5799 5799 5798 5797 5796
5782 5783 5784 5784 5785 5787 5787 5789 5789 5790 5791 5792 5793 5794 5795 5796 5796 5797 5797 5797 5797 5798 5799 5799 5800 5801 5801 5801 5802 5802 5803 5804 5804 5804 5805 5806 5806 5807 5808 5808 5809 5809 5810 5811 5811 5812 5813 5813 5814 5814 5815 5815 5816 5816 5816 5816 5816 5815 5815 5815 5815 5815 5814 5814 5814 5814 5813 5813 5812 5812 5812 5811 5811 5811 5810 5810 5809 5809 5809 5809 5808 5808 5807 5807 5806 5806 5805 5804 5804 5803 5803 5802 5801 5801 5800 5800 5800 5799 5799 5798 5797 5796 5795
5780 5780 5781 5782 5783 5784 5785 5786 5787 5788 5789 5790 5791 5792 5793 5794 5794 5795 5795 5795 5795 5795 5796 5797 5798 5799 5799 5799 5800 5800 5801 5802 5802 5803 5803 5804 5804 5805 5806 5806 5807 5808 5808 5809 5810 5810 5811 5812 5812 5813 5813 5814 5814 5814 5814 5814 5814 5814 5814 5814 5813 5813 5813 5813 5812 5812 5812 5811 5811 5810 5810 5809 5809 5809 5809 5808 5808 5808 5807 5807 5806 5806 5805 5805 5805 5804 5803 5803 5802 5802 5801 5801 5800 5799 5799 5798 5797 5796 5796 5795 5795 5795 5793
5777 5778 5778 5779 5780 5781 5782 5783 5784 5785 5786 5787 5788 5789 5791 5792 5792 5793 5794 5794 5794 5794 5794 5795 5796 5797 5797 5798 5798 5799 5799 5800 5800 5801 5802 5802 5803 5804 5804 5805 5805 5806 5807 5807 5808 5809 5809 5810 5811 5811 5812 5812 5813 5813 5813 5813 5813 5813 5812 5812 5812 5812 5811 5811 5811 5810 5810 5809 5809 5809 5808 5808 5807 5807 5807 5807 5806 5806 5805 5805 5805 5804 5804 5804 5803 5803 5802 5801 5801 5801 5800 5799 5799 5798 5797 5796 5795 5794 5794 5793 5792 5791 5790
5774 5775 5776 5777 5778 5779 5779 5780 5781 5782 5783 5784 5785 5787 5789 5789 5790 5791 5792 5792 5792 5792 5793 5794 5794 5795 5795 5796 5796 5797 5798 5798 5799 5799 5800 5800 5801 5802 5802 5803 5804 5804 5805 5806 5806 5807 5808 5809 5809 5810 5810 5811 5811 5811 5811 5811 5811 5811 5811 5811 5810 5810 5810 5809 5809 5809 5808 5808 5807 5807 5806 5806 5806 5805 5805 5805 5804 5804 5804 5804 5803 5803 5802 5802 5801 5801 5800 5800 5799 5799 5798 5797 5796 5796 5795 5794 5794 5793 5792 5791 5790 5789 5788
5771 5772 5773 5774 5774 5775 5777 5777 5778 5779 5780 5782 5783 5784 5786 5787 5788 5789 5789 5790 5790 5790 5791 5792 5792 5793 5794 5794 5794 5795 5796 5796 5797 5797 5798 5799 5799 5800 5800 5801 5802 5803 5804 5804 5805 5806 5806 5807 5808 5808 5809 5809 5809 5810 5810 5810 5810 5809 5809 5809 5809 5809 5808 5808 5808 5807 5806 5806 5805 5805 5805 5804 5804 5804 5804 5803 5803 5803 5802 5802 5801 5801 5801 5800 5800 5799 5799 5798 5798 5797 5796 5796 5795 5794 5794 5793 5792 5791 5790 5789 5788 5787 5786
5768 5769 5770 5771 5772 5773 5774 5774 5775 5776 5777 5779 5781 5782 5784 5785 5786 5787 5788 5788 5788 5789 5789 5790 5791 5792 5792 5792 5793 5793 5794 5794 5795 5796 5796 5797 5798 5798 5799 5800 5800 5801 5802 5803 5804 5804 5805 5805 5806 5807 5807 5808 5808 5808 5808 5808 5808 5808 5808 5808 5808 5807 5807 5806 5806 5805 5805 5804 5804 5803 5803 5803 5803 5802 5802 5802 5801 5801 5801 5800 5800 5799 5799 5799 5798 5797 5797 5796 5796 5795 5794 5794 5793 5792 5792 5791 5790 5789 5788 5787 5786 5785 5784
5766 5766 5767 5768 5769 5769 5770 5771 5773 5774 5774 5776 5778 5780 5781 5783 5784 5785 5785 5786 5786 5787 5788 5788 5789 5790 5791 5791 5791 5792 5792 5793 5793 5794 5794 5795 5796 5797 5797 5798 5799 5800 5801 5801 5802 5803 5804 5804 5805 5805 5806 5806 5806 5807 5807 5807 5807 5807 5807 5806 5806 5806 5805 5805 5804 5804 5803 5803 5802 5802 5801 5801 5801 5801 5800 5800 5800 5799 5799 5799 5798 5798 5797 5797 5796 5796 5795 5794 5794 5793 5792 5792 5791 5790 5789 5789 5788 5787 5786 5785 5784 5783 5781
5764 5764 5764 5764 5765 5766 5767 5768 5769 5770 5772 5774 5775 5777 5779 5780 5781 5783 5783 5784 5784 5785 5786 5786 5787 5788 5789 5789 5790 5790 5790 5791 5792 5792 5793 5794 5794 5795 5796 5797 5798 5798 5799 5800 5801 5801 5802 5803 5803 5804 5804 5804 5805 5805 5805 5805 5805 5805 5805 5805 5804 5804 5804 5803 5803 5802 5801 5801 5800 5800 5800 5799 5799 5799 5799 5799 5798 5798 5798 5797 5797 5796 5796 5795 5794 5794 5793 5793 5792 5791 5790 5790 5789 5788 5787 5786 5785 5784 5783 5782 5781 5780 5779
5761 5763 5763 5762 5762 5762 5763 5764 5766 5768 5769 5771 5773 5775 5776 5778 5779 5780 5781 5782 5783 5783 5784 5785 5785 5786 5787 5788 5788 5788 5789 5789 5790 5791 5792 5792 5793 5794 5794 5795 5796 5797 5798 5799 5799 5800 5801 5801 5802 5802 5803 5803 5803 5803 5804 5804 5804 5804 5804 5803 5803 5803 5802 5802 5801 5800 5800 5799 5799 5799 5798 5798 5798 5797 5797 5797 5797 5796 5796 5796 5795 5794 5794 5794 5793 5792 5791 5791 5790 5789 5789 5788 5787 5786 5785 5784 5783 5782 5781 5780 5779 5778 5777
5758 5760 5761 5760 5759 5759 5760 5761 5763 5765 5767 5769 5771 5772 5774 5775 5777 5778 5779 5780 5781 5781 5782 5783 5784 5784 5785 5786 5786 5787 5787 5788 5789 5789 5790 5791 5792 5792 5793 5794 5795 5796 5797 5797 5798 5799 5799 5800 5800 5800 5801 5801 5801 5802 5802 5802 5802 5802 5802 5802 5801 5801 5800 5800 5799 5799 5798 5798 5797 5797 5797 5796 5796 5796 5796 5795 5795 5795 5794 5794 5794 5793 5793 5792 5791 5790 5790 5789 5788 5787 5786 5785 5785 5784 5783 5782 5781 5780 5779 5778 5777 5775 5774
5755 5756 5758 5758 5757 5756 5757 5759 5760 5762 5764 5766 5768 5770 5771 5773 5774 5776 5778 5779 5779 5780 5780 5781 5782 5783 5783 5784 5784 5785 5786 5786 5787 5788 5789 5789 5790 5791 5792 5793 5794 5794 5795 5796 5797 5797 5798 5798 5799 5799 5799 5799 5800 5800 5800 5800 5800 5800 5800 5800 5800 5799 5799 5798 5798 5797 5797 5796 5796 5795 5795 5795 5794 5794 5794 5794 5794 5793 5793 5792 5792 5791 5791 5790 5789 5789 5788 5787 5786 5785 5784 5784 5783 5781 5780 5779 5779 5777 5776 5775 5774 5773 5772
5752 5753 5754 5755 5755 5755 5755 5756 5758 5760 5762 5764 5766 5767 5769 5771 5772 5774 5775 5776 5777 5778 5779 5779 5780 5781 5782 5782 5783 5783 5784 5785 5785 5786 5787 5788 5789 5790 5790 5791 5792 5793 5794 5795 5795 5796 5796 5797 5797 5797 5798 5798 5798 5799 5799 5799 5799 5799 5799 5799 5798 5798 5797 5797 5796 5796 5795 5795 5794 5794 5794 5793 5793 5793 5793 5792 5792 5792 5791 5791 5790 5789 5789 5788 5788 5787 5786 5785 5784 5783 5782 5781 5780 5779 5778 5777 5776 5775 5774 5773 5772 5770 5769
5749 5750 5752 5753 5754 5754 5755 5754 5756 5758 5760 5762 5763 5765 5766 5768 5770 5771 5773 5774 5775 5776 5777 5778 5779 5779 5780 5781 5781 5782 5783 5783 5784 5784 5786 5787 5788 5788 5789 5790 5791 5792 5793 5793 5794 5794 5794 5795 5795 5795 5796 5796 5797 5797 5797 5797 5797 5797 5797 5797 5796 5796 5796 5795 5795 5794 5794 5793 5793 5792 5792 5792 5791 5791 5791 5791 5790 5790 5789 5789 5788 5788 5787 5786 5785 5785 5784 5783 5782 5781 5780 5779 5778 5777 5776 5775 5774 5773 5772 5770 5769 5768 5766
5746 5747 5749 5751 5752 5753 5754 5754 5754 5756 5758 5759 5761 5762 5764 5766 5768 5769 5771 5772 5774 5774 5775 5776 5777 5778 5779 5779 5780 5780 5781 5782 5783 5783 5784 5785 5786 5787 5788 5789 5789 5790 5791 5792 5792 5793 5793 5793 5794 5794 5794 5795 5795 5795 5796 5796 5796 5796 5796 5795 5795 5794 5794 5794 5793 5793 5792 5792 5791 5791 5790 5790 5790 5789 5789 5789 5789 5788 5787 5787 5786 5786 5785 5784 5783 5783 5782 5781 5780 5779 5778 5777 5776 5775 5774 5773 5772 5771 5769 5768 5766 5765 5763
5743 5744 5746 5748 5749 5750 5751 5752 5753 5754 5755 5757 5758 5760 5762 5764 5765 5767 5769 5770 5772 5773 5774 5774 5775 5776 5776 5777 5778 5779 5779 5780 5781 5782 5783 5784 5785 5786 5786 5787 5788 5789 5789 5790 5790 5791 5791 5792 5792 5792 5793 5794 5794 5794 5794 5794 5794 5794 5794 5794 5793 5793 5793 5792 5792 5791 5790 5790 5789 5789 5789 5789 5788 5788 5788 5787 5787 5786 5785 5785 5784 5784 5783 5782 5781 5780 5779 5778 5777 5776 5775 5775 5774 5773 5772 5771 5769 5768 5767 5765 5764 5762 5760
5740 5742 5743 5745 5746 5748 5748 5749 5751 5752 5753 5754 5756 5757 5759 5761 5763 5765 5767 5768 5769 5771 5772 5772 5773 5774 5774 5775 5776 5777 5778 5779 5779 5780 5781 5782 5783 5784 5785 5786 5787 5788 5788 5789 5789 5789 5789 5790 5790 5791 5792 5792 5793 5793 5793 5793 5793 5793 5793 5792 5792 5791 5791 5790 5790 5789 5789 5788 5788 5788 5787 5787 5786 5786 5786 5785 5785 5784 5784 5783 5782 5781 5781 5780 5779 5778 5777 5776 5775 5774 5774 5773 5772 5770 5769 5768 5767 5765 5764 5762 5761 5759 5758
5737 5739 5740 5742 5744 5745 5746 5747 5749 5750 5751 5752 5753 5755 5757 5759 5761 5763 5765 5766 5768 5769 5770 5770 5771 5772 5773 5774 5774 5775 5776 5777 5778 5779 5780 5781 5782 5783 5784 5785 5785 5786 5787 5787 5787 5788 5788 5789 5789 5790 5790 5791 5791 5791 5791 5791 5791 5791 5791 5791 5790 5790 5789 5789 5788 5788 5787 5787 5786 5786 5785 5785 5785 5784 5784 5783 5783 5782 5782 5781 5780 5779 5779 5778 5777 5776 5775 5774 5773 5772 5771 5770 5769 5768 5767 5765 5764 5762 5761 5759 5758 5756 5754
5734 5736 5738 5739 5740 5742 5744 5745 5746 5747 5749 5749 5750 5752 5754 5756 5759 5760 5763 5764 5766 5767 5768 5769 5769 5770 5771 5772 5773 5774 5774 5775 5776 5777 5779 5779 5780 5782 5783 5783 5784 5784 5785 5785 5786 5786 5787 5787 5788 5789 5789 5789 5789 5790 5790 5790 5790 5790 5789 5789 5789 5788 5788 5787 5787 5786 5786 5785 5785 5784 5784 5784 5783 5783 5782 5782 5781 5780 5780 5779 5778 5777 5776 5775 5774 5774 5773 5772 5771 5770 5769 5768 5767 5765 5764 5763 5761 5760 5758 5757 5755 5754 5752
5731 5733 5735 5736 5738 5739 5741 5743 5744 5745 5747 5748 5749 5750 5752 5754 5756 5758 5760 5762 5764 5765 5766 5767 5768 5769 5770 5770 5771 5772 5773 5774 5775 5776 5777 5778 5779 5780 5781 5782 5782 5783 5783 5784 5784 5785 5785 5786 5787 5787 5788 5788 5788 5788 5788 5788 5788 5788 5788 5788 5787 5787 5786 5786 5785 5785 5784 5784 5783 5783 5782 5782 5781 5781 5780 5780 5779 5779 5778 5777 5776 5775 5774 5773 5772 5771 5771 5770 5769 5768 5767 5765 5764 5763 5761 5760 5759 5757 5755 5754 5752 5751 5749
5729 5730 5732 5734 5735 5736 5738 5740 5742 5744 5745 5746 5747 5748 5749 5751 5754 5756 5758 5760 5761 5763 5764 5765 5766 5767 5768 5769 5770 5771 5771 5772 5773 5774 5775 5777 5778 5779 5779 5780 5781 5781 5782 5782 5783 5784 5784 5785 5785 5786 5786 5786 5787 5787 5787 5787 5787 5787 5786 5786 5786 5785 5785 5784 5784 5783 5783 5782 5782 5781 5781 5780 5780 5779 5779 5778 5777 5776 5776 5775 5774 5773 5772 5771 5770 5769 5769 5768 5767 5765 5764 5763 5762 5760 5759 5758 5756 5754 5753 5751 5750 5748 5746
5726 5728 5729 5731 5732 5734 5735 5738 5740 5741 5743 5744 5745 5746 5748 5749 5751 5754 5756 5758 5759 5761 5762 5763 5764 5765 5767 5767 5768 5769 5770 5771 5772 5773 5774 5775 5776 5777 5778 5778 5779 5780 5780 5781 5781 5782 5783 5783 5784 5784 5785 5785 5785 5785 5785 5785 5785 5785 5785 5784 5784 5784 5783 5783 5782 5782 5781 5781 5780 5780 5779 5779 5778 5777 5777 5776 5775 5774 5774 5772 5771 5770 5769 5769 5768 5767 5766 5765 5764 5763 5762 5760 5759 5758 5756 5755 5754 5752 5750 5749 5747 5745 5744
5724 5725 5727 5728 5730 5731 5733 5735 5737 5739 5741 5742 5743 5744 5746 5748 5749 5751 5754 5755 5757 5759 5760 5762 5763 5764 5764 5766 5767 5768 5768 5769 5770 5771 5772 5773 5774 5775 5776 5776 5777 5778 5779 5779 5780 5780 5781 5782 5783 5783 5783 5784 5784 5784 5784 5784 5784 5784 5783 5783 5783 5782 5782 5781 5781 5780 5779 5779 5779 5778 5778 5777 5776 5775 5775 5774 5773 5772 5771 5770 5769 5769 5768 5767 5766 5765 5764 5763 5762 5760 5759 5758 5756 5755 5754 5752 5751 5749 5748 5746 5744 5743 5741
5721 5723 5724 5726 5727 5729 5730 5732 5734 5736 5738 5740 5741 5743 5744 5746 5748 5749 5751 5753 5755 5757 5758 5760 5761 5762 5763 5764 5765 5766 5766 5767 5769 5770 5771 5772 5772 5773 5774 5775 5776 5777 5777 5777 5778 5779 5780 5781 5781 5781 5782 5782 5782 5782 5782 5782 5782 5782 5781 5781 5781 5780 5780 5779 5779 5778 5778 5777 5777 5776 5776 5775 5774 5774 5773 5772 5771 5770 5769 5768 5767 5766 5766 5765 5764 5763 5762 5760 5759 5758 5756 5755 5754 5752 5751 5749 5748 5746 5745 5743 5741 5740 5738
5719 5721 5722 5723 5725 5726 5728 5730 5732 5734 5736 5737 5739 5740 5742 5744 5745 5747 5749 5751 5753 5754 5756 5758 5759 5760 5761 5762 5763 5764 5765 5766 5767 5768 5769 5770 5771 5771 5772 5773 5774 5775 5775 5776 5777 5777 5778 5779 5779 5780 5780 5780 5780 5780 5780 5780 5780 5780 5780 5779 5779 5779 5778 5777 5777 5776 5776 5776 5775 5774 5774 5773 5772 5771 5770 5769 5769 5768 5767 5766 5765 5764 5764 5763 5762 5761 5759 5758 5757 5755 5754 5752 5751 5749 5748 5747 5745 5743 5742 5740 5739 5737 5735
5717 5718 5719 5721 5722 5724 5725 5727 5729 5732 5734 5735 5736 5738 5740 5741 5743 5745 5747 5749 5751 5753 5754 5755 5757 5758 5759 5760 5761 5762 5763 5764 5765 5766 5767 5768 5769 5770 5771 5772 5773 5773 5774 5774 5775 5776 5777 5777 5778 5778 5779 5779 5779 5779 5779 5779 5779 5778 5778 5778 5777 5777 5776 5775 5775 5774 5774 5774 5773 5772 5772 5771 5770 5769 5768 5767 5766 5765 5764 5764 5763 5762 5762 5760 5759 5758 5757 5756 5754 5753 5751 5750 5748 5747 5745 5744 5742 5740 5739 5737 5736 5734 5733
5714 5716 5717 5719 5720 5721 5723 5725 5727 5729 5731 5733 5734 5735 5737 5739 5741 5743 5745 5747 5749 5751 5752 5754 5755 5756 5757 5759 5759 5760 5762 5763 5764 5765 5766 5767 5767 5768 5769 5770 5771 5771 5772 5773 5774 5774 5775 5776 5776 5776 5777 5777 5777 5777 5777 5777 5777 5776 5776 5776 5775 5775 5774 5774 5773 5773 5772 5772 5771 5770 5769 5769 5768 5767 5766 5765 5764 5763 5763 5762 5761 5760 5759 5758 5757 5756 5755 5753 5752 5750 5749 5747 5746 5744 5743 5741 5739 5738 5736 5735 5733 5732 5730
5712 5714 5715 5716 5718 5719 5721 5723 5724 5727 5729 5730 5732 5733 5734 5736 5739 5741 5743 5745 5747 5749 5750 5752 5753 5754 5755 5757 5758 5759 5760 5761 5762 5763 5764 5765 5766 5767 5768 5769 5769 5770 5770 5771 5772 5773 5774 5774 5774 5775 5775 5775 5775 5775 5775 5775 5775 5775 5774 5774 5774 5773 5773 5772 5771 5771 5770 5769 5769 5768 5767 5766 5766 5765 5764 5763 5762 5761 5760 5760 5759 5758 5757 5756 5755 5754 5752 5751 5749 5748 5746 5745 5743 5742 5740 5739 5737 5735 5734 5732 5731 5729 5728
5710 5711 5713 5714 5715 5717 5718 5720 5722 5724 5726 5728 5729 5731 5732 5734 5736 5739 5741 5743 5745 5747 5748 5749 5751 5752 5754 5755 5756 5757 5758 5759 5761 5762 5763 5764 5764 5765 5766 5767 5768 5768 5769 5770 5771 5772 5772 5772 5773 5773 5774 5774 5774 5774 5774 5774 5773 5773 5773 5773 5772 5771 5771 5770 5769 5769 5768 5767 5766 5766 5765 5764 5764 5763 5762 5761 5760 5759 5758 5758 5757 5756 5755 5754 5752 5751 5750 5749 5747 5746 5744 5743 5741 5739 5738 5736 5735 5733 5732 5730 5729 5728 5726
5707 5709 5710 5712 5713 5715 5716 5718 5720 5722 5724 5725 5727 5728 5729 5732 5734 5736 5739 5741 5743 5744 5746 5748 5749 5750 5751 5753 5754 5755 5756 5758 5759 5760 5761 5762 5763 5764 5765 5765 5766 5767 5768 5769 5769 5770 5770 5770 5771 5772 5772 5772 5772 5772 5772 5772 5772 5772 5771 5771 5770 5769 5769 5768 5767 5767 5766 5765 5764 5764 5763 5762 5761 5760 5759 5759 5758 5757 5756 5755 5754 5753 5752 5751 5750 5749 5747 5746 5745 5744 5742 5740 5739 5737 5736 5734 5733 5731 5729 5728 5727 5726 5724
5705 5707 5708 5710 5711 5713 5714 5716 5718 5720 5722 5723 5725 5726 5727 5729 5732 5734 5736 5739 5741 5742 5744 5745 5747 5748 5749 5751 5752 5754 5754 5756 5757 5759 5760 5761 5762 5762 5763 5764 5765 5766 5766 5767 5768 5768 5768 5769 5769 5770 5770 5770 5770 5770 5770 5770 5770 5770 5770 5769 5768 5767 5767 5766 5765 5765 5764 5763 5762 5761 5761 5760 5759 5758 5758 5757 5756 5755 5754 5753 5752 5751 5750 5749 5748 5746 5745 5744 5743 5741 5740 5739 5737 5735 5734 5732 5731 5729 5728 5726 5725 5724 5722
5703 5704 5706 5708 5709 5711 5712 5714 5716 5718 5720 5721 5723 5724 5725 5727 5729 5732 5734 5737 5739 5740 5742 5744 5745 5746 5747 5749 5750 5752 5753 5754 5756 5757 5758 5759 5760 5761 5762 5763 5764 5764 5765 5766 5766 5767 5767 5767 5767 5768 5768 5768 5768 5768 5768 5768 5768 5768 5768 5767 5766 5765 5765 5764 5763 5763 5762 5761 5760 5759 5759 5758 5757 5756 5756 5755 5754 5753 5752 5751 5750 5749 5748 5746 5745 5744 5743 5742 5741 5739 5738 5736 5735 5734 5732 5730 5729 5728 5726 5725 5723 5722 5720
5700 5702 5704 5705 5707 5709 5710 5712 5714 5716 5718 5719 5721 5722 5723 5725 5728 5730 5732 5734 5737 5738 5740 5741 5743 5744 5745 5747 5748 5749 5751 5753 5754 5755 5756 5757 5758 5759 5760 5761 5762 5763 5764 5764 5764 5765 5765 5765 5766 5766 5766 5766 5766 5766 5766 5766 5766 5766 5766 5765 5764 5764 5763 5762 5761 5760 5759 5759 5758 5757 5757 5756 5755 5754 5754 5753 5752 5751 5749 5749 5747 5746 5745 5744 5743 5742 5741 5740 5739 5738 5736 5734 5733 5731 5730 5729 5727 5726 5724 5723 5721 5720 5718